This demonstration page uses our WeatherBlox Daily Observations layout. Learn more.

Left ArrowRight Arrow

41.86663, -103.66717

Hourly Observations for September 17, 2021

Temp ( °F °C ) Dew Point ( °F °C ) Humidity (%) Winds ( mph kmh ) Pressure ( in mb ) Visibility ( mi km ) Precip ( " mm )
12:53 am 00:53 Clear 53 11.7 35 1.7 51 51 N 14 22 30.04 1017 10 16 N/A
1:53 am 01:53 Clear 50 10 36 2.2 59 59 N 10 17 30.08 1019 10 16 N/A
2:53 am 02:53 Clear 49 9.4 35 1.7 59 59 N 8 13 30.11 1020 10 16 N/A
3:53 am 03:53 Mostly Cloudy 50 10 35 1.7 57 57 undefined N/A 30.13 1020 10 16 N/A
4:53 am 04:53 Cloudy 49 9.4 36 2.2 61 61 NW 7 11 30.16 1021 10 16 N/A
5:53 am 05:53 Cloudy 49 9.4 36 2.2 61 61 WNW 5 7 30.18 1022 10 16 N/A
6:53 am 06:53 Mostly Cloudy 47 8.3 35 1.7 63 63 NW 3 6 30.20 1023 10 16 N/A
7:53 am 07:53 Sunny 51 10.6 34 1.1 52 52 NNE 3 6 30.22 1024 10 16 N/A
8:53 am 08:53 Sunny 53 11.7 34 1.1 48 48 VRB 3 6 30.24 1024 10 16 N/A
9:53 am 09:53 Sunny 56 13.3 32 undefined 40 40 ESE 5 7 30.26 1025 10 16 N/A
10:53 am 10:53 Sunny 57 13.9 33 0.6 41 41 SE 8 13 30.27 1025 10 16 N/A
11:53 am 11:53 Sunny 62 16.7 33 0.6 34 34 SSE 9 15 30.25 1025 10 16 N/A
12:53 pm 12:53 Mostly Sunny 66 18.9 35 1.7 32 32 SE 13 20 30.21 1023 10 16 N/A
1:53 pm 13:53 Sunny 69 20.6 37 2.8 31 31 SSE 12 19 30.18 1022 10 16 N/A
2:53 pm 14:53 Sunny 71 21.7 38 3.3 30 30 S 17 28 30.14 1021 10 16 N/A
3:53 pm 15:53 Sunny 73 22.8 39 3.9 29 29 SSE 15 24 30.10 1019 10 16 N/A
4:53 pm 16:53 Sunny 73 22.8 40 4.4 30 30 S 15 24 30.09 1019 10 16 N/A
5:53 pm 17:53 Sunny 72 22.2 43 6.1 35 35 S 15 24 30.09 1019 10 16 N/A
6:53 pm 18:53 Sunny 67 19.4 43 6.1 42 42 SSE 12 19 30.10 1019 10 16 N/A
7:53 pm 19:53 Clear 65 18.3 44 6.7 47 47 SE 13 20 30.09 1019 10 16 N/A
8:53 pm 20:53 Clear 61 16.1 45 7.2 56 56 ESE 12 19 30.11 1020 10 16 N/A
9:53 pm 21:53 Clear 58 14.4 45 7.2 62 62 ESE 10 17 30.11 1020 10 16 N/A
10:53 pm 22:53 Clear 55 12.8 45 7.2 69 69 E 9 15 30.11 1020 10 16 N/A
11:53 pm 23:53 Clear 54 12.2 45 7.2 72 72 ESE 14 22 30.09 1019 10 16 N/A

Powered by AerisWeather